Карточка аэропорта URRP

Внимание!
Информация на этой странице в стадии наполнения.
Если вы не увидели какой-то информации, или заметили неточность - пожалуйста сообщите нам!
Спасибо!
Команда RU-STAFF
Название аэропортаПлатов
Название аэропорта (англ.)Platov
Превышение282 ft. (86 m.)
Координаты47°29.634', 39°55.482'
Высота перехода3500 ft
Эшелон переходаFL50 (QNH >= 996); FL60 (QNH < 996)
Коды ответчика1001-1017
Зона ОрВДРостов-на-Дону РПИ (URRV)
Данные METARURRP 041800Z 10011MPS CAVOK M07/M13 Q1042 R05/CLRD70 TEMPO 11013G20MPS RMK QFE777/1036
Проноз погоды (TAF)URRP 041700Z 0418/0518 08009G14MPS 9999 SCT016 TEMPO 0418/0518 10010G17MPS
NOTAMshow/hide NOTAM
AWOS   TABLE

Информация о ВПП

ВПП Длина ВПП (м.) Покрытие Курс ВПП Частота ILS
233900Цементобетон226110.9
053900Цементобетон46111.5

Диспетчерские позиции

Позывной Наименование органа УВД Частота
URRP_APPПлатов-подход128.2
URRP_DELПлатов-деливери127.1
URRP_GNDПлатов - руление119.0
URRP_R_APPПлатов - Круг121.2
URRP_TWRПлатов-Вышка119.7



Спутниковое изображение